Time,TemperatureF,DewpointF,PressureIn,WindDirection,WindDirectionDegrees,WindSpeedMPH,WindSpeedGustMPH,Humidity,HourlyPrecipIn,Conditions,Clouds,dailyrainin,SoftwareType,DateUTC
2013-01-23 00:02:00,20.0,2.0,-100.00,NE,35,0.0,0.0,46,-99.99,,,-99.99,,2013-01-23 06:02:00,
2013-01-23 00:12:00,19.0,3.0,-100.00,NNE,25,0.0,0.0,49,-99.99,,,-99.99,,2013-01-23 06:12:00,
2013-01-23 00:22:00,19.0,3.0,-100.00,NNE,25,0.0,0.0,49,-99.99,,,-99.99,,2013-01-23 06:22:00,
2013-01-23 00:43:00,18.0,4.0,-100.00,NNE,30,0.0,0.0,53,-99.99,,,-99.99,,2013-01-23 06:43:00,
2013-01-23 00:53:00,17.0,4.0,-100.00,NNE,15,0.0,0.0,56,-99.99,,,-99.99,,2013-01-23 06:53:00,
2013-01-23 01:02:00,17.0,4.0,-100.00,NNE,15,0.0,0.0,56,-99.99,,,-99.99,,2013-01-23 07:02:00,
2013-01-23 01:12:00,17.0,5.0,-100.00,North,10,0.0,0.0,58,-99.99,,,-99.99,,2013-01-23 07:12:00,
2013-01-23 01:22:00,17.0,5.0,-100.00,NNW,340,0.0,0.0,59,-99.99,,,-99.99,,2013-01-23 07:22:00,
2013-01-23 01:33:00,16.0,5.0,-100.00,NNW,340,0.0,0.0,61,-99.99,,,-99.99,,2013-01-23 07:33:00,
2013-01-23 01:42:00,16.0,5.0,-100.00,NNW,340,0.0,0.0,61,-99.99,,,-99.99,,2013-01-23 07:42:00,
2013-01-23 01:53:00,15.0,5.0,-100.00,NNW,340,0.0,0.0,64,-99.99,,,-99.99,,2013-01-23 07:53:00,
2013-01-23 02:02:00,15.0,5.0,-100.00,NNW,340,0.0,0.0,64,-99.99,,,-99.99,,2013-01-23 08:02:00,
2013-01-23 02:13:00,16.0,6.0,-100.00,NW,320,0.0,0.0,65,-99.99,,,-99.99,,2013-01-23 08:13:00,
2013-01-23 02:22:00,15.0,6.0,-100.00,NW,320,0.0,0.0,67,-99.99,,,-99.99,,2013-01-23 08:22:00,
2013-01-23 02:33:00,15.0,6.0,-100.00,NW,320,0.0,0.0,67,-99.99,,,-99.99,,2013-01-23 08:33:00,
2013-01-23 02:42:00,15.0,7.0,-100.00,NW,310,0.0,0.0,70,-99.99,,,-99.99,,2013-01-23 08:42:00,
2013-01-23 02:53:00,15.0,7.0,-100.00,NW,310,0.0,0.0,71,-99.99,,,-99.99,,2013-01-23 08:53:00,
2013-01-23 03:01:00,14.0,8.0,-100.00,NW,310,0.0,0.0,76,-99.99,,,-99.99,,2013-01-23 09:01:00,
2013-01-23 03:03:00,15.0,7.0,-100.00,NW,310,0.0,0.0,71,-99.99,,,-99.99,,2013-01-23 09:03:00,
2013-01-23 03:12:00,14.0,7.0,-100.00,NW,310,0.0,0.0,73,-99.99,,,-99.99,,2013-01-23 09:12:00,
2013-01-23 03:22:00,14.0,8.0,-100.00,NW,310,0.0,0.0,74,-99.99,,,-99.99,,2013-01-23 09:22:00,
2013-01-23 03:32:00,14.0,8.0,-100.00,NW,310,0.0,0.0,74,-99.99,,,-99.99,,2013-01-23 09:32:00,
2013-01-23 03:43:00,14.0,8.0,-100.00,NW,310,0.0,0.0,76,-99.99,,,-99.99,,2013-01-23 09:43:00,
2013-01-23 03:53:00,14.0,8.0,-100.00,NW,310,0.0,0.0,76,-99.99,,,-99.99,,2013-01-23 09:53:00,
2013-01-23 04:12:00,13.0,8.0,-100.00,SW,230,1.0,1.0,79,-99.99,,,-99.99,,2013-01-23 10:12:00,
2013-01-23 04:23:00,13.0,9.0,-100.00,SW,220,0.0,0.0,81,-99.99,,,-99.99,,2013-01-23 10:23:00,
2013-01-23 04:33:00,13.0,9.0,-100.00,SW,220,0.0,0.0,81,-99.99,,,-99.99,,2013-01-23 10:33:00,
2013-01-23 04:43:00,13.0,9.0,-100.00,SW,215,1.0,1.0,81,-99.99,,,-99.99,,2013-01-23 10:43:00,
2013-01-23 04:53:00,13.0,9.0,-100.00,South,170,3.0,3.0,82,-99.99,,,-99.99,,2013-01-23 10:53:00,
2013-01-23 05:02:00,13.0,9.0,-100.00,South,170,3.0,3.0,82,-99.99,,,-99.99,,2013-01-23 11:02:00,
2013-01-23 05:12:00,14.0,9.0,-100.00,South,190,0.0,1.0,83,-99.99,,,-99.99,,2013-01-23 11:12:00,
2013-01-23 05:23:00,14.0,10.0,-100.00,South,180,1.0,2.0,81,-99.99,,,-99.99,,2013-01-23 11:23:00,
2013-01-23 05:33:00,14.0,10.0,-100.00,South,180,1.0,2.0,81,-99.99,,,-99.99,,2013-01-23 11:33:00,
2013-01-23 05:43:00,14.0,9.0,-100.00,South,175,3.0,4.0,81,-99.99,,,-99.99,,2013-01-23 11:43:00,
2013-01-23 05:53:00,15.0,10.0,-100.00,South,180,1.0,2.0,80,-99.99,,,-99.99,,2013-01-23 11:53:00,
2013-01-23 06:03:00,15.0,10.0,-100.00,South,180,1.0,2.0,80,-99.99,,,-99.99,,2013-01-23 12:03:00,
2013-01-23 06:12:00,16.0,10.0,-100.00,SSW,210,1.0,1.0,75,-99.99,,,-99.99,,2013-01-23 12:12:00,
2013-01-23 06:22:00,16.0,9.0,-100.00,SSE,155,1.0,3.0,73,-99.99,,,-99.99,,2013-01-23 12:22:00,
2013-01-23 06:33:00,16.0,9.0,-100.00,SSE,155,1.0,3.0,73,-99.99,,,-99.99,,2013-01-23 12:33:00,
2013-01-23 06:43:00,17.0,9.0,-100.00,SSE,165,3.0,4.0,71,-99.99,,,-99.99,,2013-01-23 12:43:00,
2013-01-23 06:53:00,17.0,9.0,-100.00,SSE,165,1.0,3.0,68,-99.99,,,-99.99,,2013-01-23 12:53:00,
2013-01-23 07:04:00,17.0,9.0,-100.00,SSE,165,1.0,3.0,68,-99.99,,,-99.99,,2013-01-23 13:04:00,
2013-01-23 07:13:00,18.0,8.0,-100.00,SSE,165,3.0,4.0,67,-99.99,,,-99.99,,2013-01-23 13:13:00,
2013-01-23 07:23:00,18.0,8.0,-100.00,South,175,4.0,6.0,66,-99.99,,,-99.99,,2013-01-23 13:23:00,
2013-01-23 07:33:00,18.0,8.0,-100.00,South,185,3.0,3.0,64,-99.99,,,-99.99,,2013-01-23 13:33:00,
2013-01-23 07:42:00,18.0,8.0,-100.00,South,185,3.0,3.0,64,-99.99,,,-99.99,,2013-01-23 13:42:00,
2013-01-23 07:53:00,18.0,8.0,-100.00,SSE,160,2.0,4.0,64,-99.99,,,-99.99,,2013-01-23 13:53:00,
2013-01-23 08:03:00,18.0,8.0,-100.00,SSE,160,2.0,4.0,64,-99.99,,,-99.99,,2013-01-23 14:03:00,
2013-01-23 08:12:00,18.0,8.0,-100.00,SSE,165,3.0,4.0,64,-99.99,,,-99.99,,2013-01-23 14:12:00,
2013-01-23 08:23:00,20.0,9.0,-100.00,SSE,165,3.0,4.0,63,-99.99,,,-99.99,,2013-01-23 14:23:00,
2013-01-23 08:33:00,20.0,9.0,-100.00,SSE,165,3.0,4.0,63,-99.99,,,-99.99,,2013-01-23 14:33:00,
2013-01-23 08:43:00,22.0,10.0,-100.00,SSE,165,3.0,3.0,61,-99.99,,,-99.99,,2013-01-23 14:43:00,
2013-01-23 08:53:00,23.0,11.0,-100.00,SSE,165,4.0,4.0,59,-99.99,,,-99.99,,2013-01-23 14:53:00,
2013-01-23 09:03:00,23.0,11.0,-100.00,SSE,165,4.0,4.0,59,-99.99,,,-99.99,,2013-01-23 15:03:00,
2013-01-23 09:12:00,24.0,11.0,-100.00,SSE,150,4.0,6.0,56,-99.99,,,-99.99,,2013-01-23 15:12:00,
2013-01-23 09:23:00,26.0,11.0,-100.00,SSE,160,6.0,8.0,53,-99.99,,,-99.99,,2013-01-23 15:23:00,
2013-01-23 09:33:00,26.0,11.0,-100.00,SSE,160,6.0,8.0,53,-99.99,,,-99.99,,2013-01-23 15:33:00,
2013-01-23 09:43:00,28.0,11.0,-100.00,SSE,165,3.0,4.0,50,-99.99,,,-99.99,,2013-01-23 15:43:00,
2013-01-23 09:53:00,28.0,11.0,-100.00,South,175,4.0,9.0,48,-99.99,,,-99.99,,2013-01-23 15:53:00,
2013-01-23 10:03:00,28.0,11.0,-100.00,South,175,4.0,9.0,48,-99.99,,,-99.99,,2013-01-23 16:03:00,
2013-01-23 10:12:00,29.0,11.0,-100.00,SSE,155,4.0,6.0,46,-99.99,,,-99.99,,2013-01-23 16:12:00,
2013-01-23 10:23:00,31.0,12.0,-100.00,SSE,165,6.0,6.0,45,-99.99,,,-99.99,,2013-01-23 16:23:00,
2013-01-23 10:33:00,31.0,12.0,-100.00,SSE,165,6.0,12.0,44,-99.99,,,-99.99,,2013-01-23 16:33:00,
2013-01-23 10:42:00,31.0,12.0,-100.00,SSE,165,6.0,12.0,44,-99.99,,,-99.99,,2013-01-23 16:42:00,
2013-01-23 10:53:00,32.0,12.0,-100.00,South,175,10.0,14.0,44,-99.99,,,-99.99,,2013-01-23 16:53:00,
2013-01-23 11:03:00,32.0,12.0,-100.00,South,175,10.0,14.0,44,-99.99,,,-99.99,,2013-01-23 17:03:00,
2013-01-23 11:12:00,33.0,13.0,-100.00,SSE,155,6.0,10.0,43,-99.99,,,-99.99,,2013-01-23 17:12:00,
2013-01-23 11:23:00,34.0,13.0,-100.00,SE,135,4.0,9.0,43,-99.99,,,-99.99,,2013-01-23 17:23:00,
2013-01-23 11:33:00,34.0,13.0,-100.00,SE,135,4.0,9.0,43,-99.99,,,-99.99,,2013-01-23 17:33:00,
2013-01-23 11:42:00,36.0,15.0,-100.00,SSW,195,6.0,12.0,42,-99.99,,,-99.99,,2013-01-23 17:42:00,
2013-01-23 11:53:00,36.0,15.0,-100.00,South,190,10.0,14.0,41,-99.99,,,-99.99,,2013-01-23 17:53:00,
2013-01-23 12:03:00,36.0,15.0,-100.00,South,190,10.0,14.0,41,-99.99,,,-99.99,,2013-01-23 18:03:00,
2013-01-23 12:12:00,38.0,15.0,-100.00,SSW,195,9.0,12.0,40,-99.99,,,-99.99,,2013-01-23 18:12:00,
2013-01-23 12:23:00,38.0,16.0,-100.00,SSW,205,9.0,12.0,41,-99.99,,,-99.99,,2013-01-23 18:23:00,
2013-01-23 12:33:00,38.0,16.0,-100.00,SSW,205,9.0,12.0,41,-99.99,,,-99.99,,2013-01-23 18:33:00,
2013-01-23 12:43:00,39.0,17.0,-100.00,SW,220,8.0,11.0,40,-99.99,,,-99.99,,2013-01-23 18:43:00,
2013-01-23 12:53:00,40.0,17.0,-100.00,SSW,210,9.0,10.0,39,-99.99,,,-99.99,,2013-01-23 18:53:00,
2013-01-23 13:03:00,40.0,17.0,-100.00,SSW,210,9.0,10.0,39,-99.99,,,-99.99,,2013-01-23 19:03:00,
2013-01-23 13:13:00,40.0,17.0,-100.00,SSW,195,9.0,14.0,39,-99.99,,,-99.99,,2013-01-23 19:13:00,
2013-01-23 13:23:00,41.0,18.0,-100.00,SSW,195,9.0,11.0,38,-99.99,,,-99.99,,2013-01-23 19:23:00,
2013-01-23 13:33:00,41.0,18.0,-100.00,SSW,195,9.0,11.0,38,-99.99,,,-99.99,,2013-01-23 19:33:00,
2013-01-23 13:43:00,42.0,18.0,-100.00,South,190,6.0,8.0,38,-99.99,,,-99.99,,2013-01-23 19:43:00,
2013-01-23 13:53:00,42.0,18.0,-100.00,West,270,3.0,6.0,38,-99.99,,,-99.99,,2013-01-23 19:53:00,
2013-01-23 14:03:00,42.0,18.0,-100.00,West,270,3.0,6.0,38,-99.99,,,-99.99,,2013-01-23 20:03:00,
2013-01-23 14:13:00,43.0,19.0,-100.00,SSW,200,6.0,12.0,37,-99.99,,,-99.99,,2013-01-23 20:13:00,
2013-01-23 14:23:00,44.0,19.0,-100.00,SSW,200,1.0,3.0,37,-99.99,,,-99.99,,2013-01-23 20:23:00,
2013-01-23 14:33:00,44.0,19.0,-100.00,SSW,200,1.0,3.0,37,-99.99,,,-99.99,,2013-01-23 20:33:00,
2013-01-23 14:43:00,44.0,19.0,-100.00,SSW,200,1.0,3.0,37,-99.99,,,-99.99,,2013-01-23 20:43:00,
2013-01-23 14:54:00,44.0,19.0,-100.00,ESE,110,6.0,10.0,36,-99.99,,,-99.99,,2013-01-23 20:54:00,
2013-01-23 15:03:00,44.0,19.0,-100.00,ESE,110,6.0,10.0,36,-99.99,,,-99.99,,2013-01-23 21:03:00,
2013-01-23 15:12:00,44.0,19.0,-100.00,SSE,155,4.0,6.0,36,-99.99,,,-99.99,,2013-01-23 21:12:00,
2013-01-23 15:23:00,44.0,18.0,-100.00,SE,140,6.0,9.0,36,-99.99,,,-99.99,,2013-01-23 21:23:00,
2013-01-23 15:33:00,44.0,18.0,-100.00,SE,140,6.0,9.0,36,-99.99,,,-99.99,,2013-01-23 21:33:00,
2013-01-23 15:43:00,44.0,19.0,-100.00,SSE,160,4.0,10.0,37,-99.99,,,-99.99,,2013-01-23 21:43:00,
2013-01-23 15:53:00,44.0,19.0,-100.00,SSE,165,6.0,10.0,37,-99.99,,,-99.99,,2013-01-23 21:53:00,
2013-01-23 16:02:00,44.0,19.0,-100.00,SSE,165,6.0,10.0,37,-99.99,,,-99.99,,2013-01-23 22:02:00,
2013-01-23 16:12:00,43.0,19.0,-100.00,South,180,6.0,10.0,38,-99.99,,,-99.99,,2013-01-23 22:12:00,
2013-01-23 16:23:00,44.0,20.0,-100.00,SSE,160,6.0,8.0,39,-99.99,,,-99.99,,2013-01-23 22:23:00,
2013-01-23 16:33:00,44.0,20.0,-100.00,SSE,160,6.0,8.0,39,-99.99,,,-99.99,,2013-01-23 22:33:00,
2013-01-23 16:42:00,44.0,20.0,-100.00,South,190,6.0,9.0,39,-99.99,,,-99.99,,2013-01-23 22:42:00,
2013-01-23 16:53:00,44.0,20.0,-100.00,SSW,200,6.0,6.0,39,-99.99,,,-99.99,,2013-01-23 22:53:00,
2013-01-23 17:03:00,44.0,20.0,-100.00,SSW,200,6.0,6.0,39,-99.99,,,-99.99,,2013-01-23 23:03:00,
2013-01-23 17:12:00,43.0,21.0,-100.00,South,190,4.0,9.0,40,-99.99,,,-99.99,,2013-01-23 23:12:00,
2013-01-23 17:23:00,42.0,20.0,-100.00,South,180,4.0,4.0,41,-99.99,,,-99.99,,2013-01-23 23:23:00,
2013-01-23 17:33:00,42.0,20.0,-100.00,South,180,4.0,4.0,41,-99.99,,,-99.99,,2013-01-23 23:33:00,
2013-01-23 17:43:00,41.0,20.0,-100.00,SSW,200,4.0,6.0,43,-99.99,,,-99.99,,2013-01-23 23:43:00,
2013-01-23 17:53:00,40.0,21.0,-100.00,SSW,200,4.0,4.0,46,-99.99,,,-99.99,,2013-01-23 23:53:00,
2013-01-23 18:03:00,40.0,21.0,-100.00,SSW,200,4.0,4.0,46,-99.99,,,-99.99,,2013-01-24 00:03:00,
2013-01-23 18:12:00,38.0,20.0,-100.00,SSW,205,2.0,3.0,48,-99.99,,,-99.99,,2013-01-24 00:12:00,
2013-01-23 18:22:00,36.0,20.0,-100.00,SW,230,1.0,2.0,52,-99.99,,,-99.99,,2013-01-24 00:22:00,
2013-01-23 18:32:00,36.0,20.0,-100.00,SW,230,1.0,2.0,52,-99.99,,,-99.99,,2013-01-24 00:32:00,
2013-01-23 18:42:00,35.0,21.0,-100.00,SW,220,1.0,1.0,56,-99.99,,,-99.99,,2013-01-24 00:42:00,
2013-01-23 18:53:00,33.0,20.0,-100.00,South,190,3.0,3.0,60,-99.99,,,-99.99,,2013-01-24 00:53:00,
2013-01-23 19:03:00,33.0,20.0,-100.00,South,190,3.0,3.0,60,-99.99,,,-99.99,,2013-01-24 01:03:00,
2013-01-23 19:12:00,33.0,22.0,-100.00,South,185,0.0,1.0,64,-99.99,,,-99.99,,2013-01-24 01:12:00,
2013-01-23 19:23:00,32.0,22.0,-100.00,SSW,195,0.0,1.0,65,-99.99,,,-99.99,,2013-01-24 01:23:00,
2013-01-23 19:33:00,32.0,22.0,-100.00,SSW,195,0.0,1.0,65,-99.99,,,-99.99,,2013-01-24 01:33:00,
2013-01-23 19:42:00,32.0,22.0,-100.00,WSW,240,0.0,0.0,66,-99.99,,,-99.99,,2013-01-24 01:42:00,
2013-01-23 19:52:00,30.0,21.0,-100.00,WSW,255,1.0,2.0,69,-99.99,,,-99.99,,2013-01-24 01:52:00,
2013-01-23 20:02:00,30.0,21.0,-100.00,WSW,255,1.0,2.0,69,-99.99,,,-99.99,,2013-01-24 02:02:00,
2013-01-23 20:12:00,29.0,21.0,-100.00,SW,235,0.0,0.0,71,-99.99,,,-99.99,,2013-01-24 02:12:00,
2013-01-23 20:22:00,28.0,21.0,-100.00,South,190,1.0,2.0,74,-99.99,,,-99.99,,2013-01-24 02:22:00,
2013-01-23 20:33:00,28.0,21.0,-100.00,South,190,1.0,2.0,74,-99.99,,,-99.99,,2013-01-24 02:33:00,
2013-01-23 20:42:00,28.0,21.0,-100.00,South,190,1.0,2.0,74,-99.99,,,-99.99,,2013-01-24 02:42:00,
2013-01-23 21:02:00,29.0,23.0,-100.00,West,260,1.0,1.0,77,-99.99,,,-99.99,,2013-01-24 03:02:00,
2013-01-23 21:12:00,29.0,23.0,-100.00,WNW,295,0.0,0.0,76,-99.99,,,-99.99,,2013-01-24 03:12:00,
2013-01-23 21:22:00,30.0,23.0,-100.00,WNW,290,2.0,3.0,77,-99.99,,,-99.99,,2013-01-24 03:22:00,
2013-01-23 21:33:00,30.0,23.0,-100.00,WNW,290,2.0,3.0,77,-99.99,,,-99.99,,2013-01-24 03:33:00,
2013-01-23 21:43:00,29.0,23.0,-100.00,WNW,300,2.0,3.0,78,-99.99,,,-99.99,,2013-01-24 03:43:00,
2013-01-23 21:53:00,31.0,24.0,-100.00,WNW,295,4.0,4.0,77,-99.99,,,-99.99,,2013-01-24 03:53:00,
2013-01-23 22:02:00,31.0,24.0,-100.00,WNW,295,4.0,4.0,77,-99.99,,,-99.99,,2013-01-24 04:02:00,
2013-01-23 22:12:00,30.0,24.0,-100.00,West,270,1.0,2.0,76,-99.99,,,-99.99,,2013-01-24 04:12:00,
2013-01-23 22:22:00,30.0,24.0,-100.00,WNW,300,3.0,4.0,77,-99.99,,,-99.99,,2013-01-24 04:22:00,
2013-01-23 22:32:00,30.0,24.0,-100.00,WNW,300,3.0,4.0,77,-99.99,,,-99.99,,2013-01-24 04:32:00,
2013-01-23 22:42:00,30.0,24.0,-100.00,WNW,290,3.0,6.0,77,-99.99,,,-99.99,,2013-01-24 04:42:00,
2013-01-23 22:53:00,30.0,24.0,-100.00,NW,320,0.0,1.0,77,-99.99,,,-99.99,,2013-01-24 04:53:00,
2013-01-23 23:03:00,30.0,24.0,-100.00,NW,320,0.0,1.0,77,-99.99,,,-99.99,,2013-01-24 05:03:00,
2013-01-23 23:12:00,32.0,25.0,-100.00,WNW,290,4.0,4.0,75,-99.99,,,-99.99,,2013-01-24 05:12:00,
2013-01-23 23:22:00,32.0,24.0,-100.00,WNW,300,4.0,6.0,73,-99.99,,,-99.99,,2013-01-24 05:22:00,
2013-01-23 23:31:00,34.0,22.0,-100.00,NW,320,4.0,10.0,62,-99.99,,,-99.99,,2013-01-24 05:31:00,
2013-01-23 23:33:00,32.0,24.0,-100.00,WNW,300,4.0,6.0,73,-99.99,,,-99.99,,2013-01-24 05:33:00,
2013-01-23 23:42:00,33.0,24.0,-100.00,NW,310,4.0,6.0,69,-99.99,,,-99.99,,2013-01-24 05:42:00,
2013-01-23 23:53:00,34.0,23.0,-100.00,NW,305,6.0,9.0,65,-99.99,,,-99.99,,2013-01-24 05:53:00,